OBJECT B

基本信息
目录编号:
68417
目录名称:
OBJECT B
国际标识:
2026-067B
轨道中心:
EARTH
物体状态:
在轨
发射日期:
2026-03-30 UTC
国别:
(TBD)
轨道信息
数据来源: 国际轨道数据
星历时间: 2026-06-13T03:33:16+0800
半长轴: 6885.96km
偏心率: 0.0000705
轨道倾角: 97.456°
近地点辐角: 13.073°
升交点赤经: 122.459°
平近点角: 347.052°
近地点: 507.337km
远地点: 508.309km
周期: 94.778分钟
每日圈数: 15.193439
详细信息
发射场:
AFWTR
轨道高度:
LEO
数据来源:
AOE Integration Group
参考系:
TEME
时间系统:
UTC
历元类型:
SGP4
2D轨道图
3D轨道图
轨道高度分析图
轨道倾角分析图
轨道综合分析图
查看轨道综合分析图